KC2NJV-10 Weather Reports


time (UTC)temp
C
wind
direction
speed
KPH
gust
KPH
rain 1hr
cm
rain 24hr
cm
rain mn
cm
humidity
%
barometer
mb
20260506033333 15 200 37.0 53.1 0.00 0.00 0.00 77 298.7
20260506031833 15 200 37.0 53.1 0.00 0.00 0.00 77 298.7
20260506030417 15 200 37.0 53.1 0.00 0.00 0.00 77 298.7
20260506030333 15 200 37.0 53.1 0.00 0.00 0.00 77 298.7
20260506024834 15 200 33.8 57.9 0.00 0.00 0.00 72 298.7
20260506023334 15 200 33.8 57.9 0.00 0.00 0.00 72 298.7
20260506021834 15 200 33.8 57.9 0.00 0.00 0.00 72 298.7
20260506020333 15 200 33.8 57.9 0.00 0.00 0.00 72 298.7
20260506014833 15 210 32.2 53.1 0.00 0.00 0.00 70 298.5
20260506013333 15 210 32.2 53.1 0.00 0.00 0.00 70 298.5
20260506011833 15 210 32.2 53.1 0.00 0.00 0.00 70 298.5
20260506010335 15 210 32.2 53.1 0.00 0.00 0.00 70 298.5
20260506004832 16 200 32.2 56.3 0.00 0.00 0.00 67 298.3
20260506003333 16 200 32.2 56.3 0.00 0.00 0.00 67 298.3
20260506000333 16 200 32.2 56.3 0.00 0.00 0.00 67 298.3
20260505234834 16 200 38.6 59.5 0.00 0.00 0.00 65 298.1
20260505233333 16 200 38.6 59.5 0.00 0.00 0.00 65 298.1
20260505231833 16 200 38.6 59.5 0.00 0.00 0.00 65 298.1
20260505230440 16 200 38.6 59.5 0.00 0.00 0.00 65 298.1
20260505230333 16 200 38.6 59.5 0.00 0.00 0.00 65 298.1
20260505224833 17 210 41.8 72.4 0.00 0.00 0.00 63 298.0
20260505223333 17 210 41.8 72.4 0.00 0.00 0.00 63 298.0
20260505221834 17 210 41.8 72.4 0.00 0.00 0.00 63 298.0
20260505220333 17 210 41.8 72.4 0.00 0.00 0.00 63 298.0
20260505213334 17 200 37.0 57.9 0.00 0.00 0.00 61 297.9
20260505211834 17 200 37.0 57.9 0.00 0.00 0.00 61 297.9
20260505210333 17 200 37.0 57.9 0.00 0.00 0.00 61 297.9
20260505204833 17 190 37.0 51.5 0.00 0.00 0.00 63 298.0
20260505203426 17 190 37.0 51.5 0.00 0.00 0.00 63 298.0
20260505203334 17 190 37.0 51.5 0.00 0.00 0.00 63 298.0
20260505201833 17 190 37.0 51.5 0.00 0.00 0.00 63 298.0
20260505200334 17 190 37.0 51.5 0.00 0.00 0.00 63 298.0
20260505194834 17 190 24.1 37.0 0.00 0.00 0.00 65 298.4
20260505193334 17 190 24.1 37.0 0.00 0.00 0.00 65 298.4
20260505191833 17 190 24.1 37.0 0.00 0.00 0.00 65 298.4
20260505190333 17 190 24.1 37.0 0.00 0.00 0.00 65 298.4
20260505184835 17 190 24.1 0.0 0.00 0.00 0.00 68 298.5
20260505183333 17 190 24.1 0.0 0.00 0.00 0.00 68 298.5
20260505181941 17 190 24.1 0.0 0.00 0.00 0.00 68 298.5
20260505181833 17 190 24.1 0.0 0.00 0.00 0.00 68 298.5
20260505180334 17 190 24.1 0.0 0.00 0.00 0.00 68 298.5
20260505174834 17 190 24.1 0.0 0.00 0.00 0.00 67 298.6
20260505173332 17 190 24.1 0.0 0.00 0.00 0.00 67 298.6
20260505171834 17 190 24.1 0.0 0.00 0.00 0.00 67 298.6
20260505170419 17 190 24.1 0.0 0.00 0.00 0.00 67 298.6
20260505170333 17 190 24.1 0.0 0.00 0.00 0.00 67 298.6
20260505164904 18 180 19.3 0.0 0.00 0.00 0.00 65 298.8
20260505164833 18 180 19.3 0.0 0.00 0.00 0.00 65 298.8
20260505163334 18 180 19.3 0.0 0.00 0.00 0.00 65 298.8
20260505161906 18 180 19.3 0.0 0.00 0.00 0.00 65 298.8
20260505161833 18 180 19.3 0.0 0.00 0.00 0.00 65 298.8
20260505160430 18 180 19.3 0.0 0.00 0.00 0.00 65 298.8
20260505160333 18 180 19.3 0.0 0.00 0.00 0.00 65 298.8
20260505153333 17 180 16.1 0.0 0.00 0.00 0.00 70 298.9
20260505151834 17 180 16.1 0.0 0.00 0.00 0.00 70 298.9
20260505150332 17 180 16.1 0.0 0.00 0.00 0.00 70 298.9
20260505140411 16 190 19.3 0.0 0.00 0.00 0.00 70 298.8
20260505140333 16 190 19.3 0.0 0.00 0.00 0.00 70 298.8
20260505124833 13 190 9.7 0.0 0.00 0.00 0.00 83 298.8
20260505123333 13 190 9.7 0.0 0.00 0.00 0.00 83 298.8
20260505121832 13 190 9.7 0.0 0.00 0.00 0.00 83 298.8
20260505120425 13 190 9.7 0.0 0.00 0.00 0.00 83 298.8
20260505120333 13 190 9.7 0.0 0.00 0.00 0.00 83 298.8
20260505114834 12 240 8.0 0.0 0.00 0.00 0.00 86 298.8
20260505113332 12 240 8.0 0.0 0.00 0.00 0.00 86 298.8
20260505111834 12 240 8.0 0.0 0.00 0.00 0.00 86 298.8
20260505110332 12 240 8.0 0.0 0.00 0.00 0.00 86 298.8
20260505101915 11 190 11.3 0.0 0.00 0.00 0.00 89 298.5
20260505101833 11 190 11.3 0.0 0.00 0.00 0.00 89 298.5
20260505100500 11 210 11.3 0.0 0.00 0.00 0.00 93 298.5
20260505100333 11 210 11.3 0.0 0.00 0.00 0.00 93 298.5
20260505094833 11 210 11.3 0.0 0.00 0.00 0.00 93 298.5
20260505093333 11 210 11.3 0.0 0.00 0.00 0.00 93 298.5
20260505091924 11 210 11.3 0.0 0.00 0.00 0.00 93 298.5
20260505091833 11 210 11.3 0.0 0.00 0.00 0.00 93 298.5
20260505090333 11 210 11.3 0.0 0.00 0.00 0.00 93 298.5
20260505084835 11 200 12.9 0.0 0.00 0.00 0.00 89 298.5
20260505081837 11 200 12.9 0.0 0.00 0.00 0.00 89 298.5
20260505080333 11 200 12.9 0.0 0.00 0.00 0.00 89 298.5
20260505074907 11 210 11.3 0.0 0.00 0.00 0.00 86 298.5
20260505074833 11 210 11.3 0.0 0.00 0.00 0.00 86 298.5
20260505073334 11 210 11.3 0.0 0.00 0.00 0.00 86 298.5
20260505071853 11 210 11.3 0.0 0.00 0.00 0.00 86 298.5
20260505070334 11 210 11.3 0.0 0.00 0.00 0.00 86 298.5
20260505064835 11 200 12.9 0.0 0.00 0.00 0.00 86 298.6
20260505063334 11 200 12.9 0.0 0.00 0.00 0.00 86 298.6
20260505060334 11 200 12.9 0.0 0.00 0.00 0.00 86 298.6
20260505054835 11 200 22.5 0.0 0.00 0.00 0.00 86 298.7
20260505053332 11 200 22.5 0.0 0.00 0.00 0.00 86 298.7
20260505051833 11 200 22.5 0.0 0.00 0.00 0.00 86 298.7
20260505050437 11 200 22.5 0.0 0.00 0.00 0.00 86 298.7
20260505050333 11 200 22.5 0.0 0.00 0.00 0.00 86 298.7
20260505040333 12 200 16.1 0.0 0.00 0.00 0.00 80 298.8
20260505034833 12 220 16.1 0.0 0.00 0.00 0.00 77 298.8